Location: Gleizolles
(44.4833°N, 6.7667°E)
Time: 14:43:59
(UTC+00:00)

deb Explorer IX - Pass Details

Date: 29 June 2024
Orbit: 510 x 878 km, 38.7° (Epoch: 21 July)

Event Time Altitude Azimuth Distance (km) Brightness Sun altitude
Rises 08:09:50 0° 264° (W) 2,703 ? 43.0°
Reaches altitude 10° 08:12:08 10° 255° (WSW) 1,853 ? 43.5°
Maximum altitude 08:15:59 34° 190° (S) 1,000 ? 44.1°
Drops below altitude 10° 08:20:12 10° 126° (SE) 2,042 ? 44.9°
Sets 08:22:52 0° 118° (ESE) 3,025 ? 45.3°
